Tracking 28096 objects as of 28-Sep-2023
HD Live streaming from Space Station
objects crossing your sky now

METEOSAT 12 (MTG I1)

Track METEOSAT 12 (MTG I1) now!
METEOSAT 12 (MTG I1) is classified as:


NORAD ID: 54743
Int'l Code: 2022-170C
Perigee: 35,785.4 km
Apogee: 35,803.8 km
Inclination: 0.5 °
Period: 1,436.1 minutes
Semi major axis: 42165 km
RCS: Unknown
Launch date: December 13, 2022
Source: European Organisation for the Exploitation of Meteorological Satellites (EUME)
Launch site: FRENCH GUIANA (FRGUI)
Your satellite tracking list
Your tracking list is empty




NASA's NSSDC Master Catalog

Two Line Element Set (TLE):
1 54743U 22170C   23271.34633365 -.00000047  00000-0  00000+0 0  9994
2 54743   0.5225 322.4906 0002175 201.2859 324.2724  1.00268788  3015
Source of the keplerian elements: AFSPC